THORAD AGENA D DEB, 42509

Orbit data source: Space-Track

THORAD AGENA D DEB, 42509 is space debris in SSO originally from a launch on Wed, 08 Apr 1970 UTC launched from the Air Force Western Test Range (AFWTR). Debris objects in space refer to the collection of defunct objects orbiting the Earth. Examples of debris include non-operational satellites, rocket bodies, and fragments generated from explosions, collisions, or faulty payload assembly.

Loading next visibility...
Identifier
42509, 1970-025RP
Orbit
SSO
Country
Flag of USUS
Related business
Manufacturer
Unknown
Mission
Spacecraft
Bus & Motor
Unknown
Mass
Unknown
Launch date (UTC)
1970-04-08 (56 years ago)
Launch vehicle
Unknown
Launch site
Air Force Western Test Range (AFWTR)
Object type
Payload
Rocket body
Debris
Shape & HBR
Unknown shape, 0.1 m
Radar Cross Section
Small (<0.1 m²)

Expand to show TLE details & history
Last TLE update: 2 days ago

TLE from 2 days ago
0 THORAD AGENA D DEB
1 42509U 70025RP  26035.63394654  .00001094  00000-0  15662-2 0  9996
2 42509 100.0457 166.0500 0124311 119.1643 242.1998 13.55358068601954
Epoch: 2026-02-04T15:12Z
TLE epoch observation values (Epoch: 2026-02-04T15:12:52.981Z)
Latitude
-0.00004°
Longitude
163.03154°
Altitude
1,099.372 km
Speed
7.281 km/s
True Right ascension
11h 04m 12s
True Declination
0° 00' 00"
Sunlit
Object was in full shadow at epoch
Visualization orbit readout
Latitude
Unknown
Longitude
Unknown
Altitude
Unknown
Speed
Unknown
Apparent Right ascension
Unknown
Apparent Declination
Unknown
Sunlit
N/A
Visualization observer readout
Local Sidereal Time
21:03:08
Azimuth
Unknown
Elevation
Unknown
Doppler factor
Unknown
Orbital elements
Apogee altitude
1,142.261 km
Perigee altitude
957.583 km
Semi-major axis
7,428.059 km
Eccentricity
0.01243
Inclination
100.0457°
RAAN
166.05°
Arg. of periapsis
119.1643°
True anomaly
240.94889°
Mean anomaly
242.1998°
Eccentric anomaly
241.57343°
Mean motion
3.39024 °/min
Orbital period
106.19 mins
BSTAR
0.0015662
Loading maneuver chart data...
Computing Atmospheric mass density...

Documentation

Showing up to 5 results
|